Madison, WI

6:13 PM CST on January 18, 2018 (GMT -0600)
Dane County Regional-Truax

Weather History for KMSN - March, 2014

Change the Weather History Date:

Tuesday, March 18, 2014

  Actual Average Record
Temperature  
Mean Temperature 36 °F 35 °F  
Max Temperature 47 °F 44 °F 81 °F (2012)
Min Temperature 25 °F 26 °F -2 °F (1959)
Degree Days  
Heating Degree Days 29 30  
Month to date heating degree days 742 606  
Since 1 July heating degree days 6854 6092  
Cooling Degree Days 0 0  
Month to date cooling degree days 0 0  
Year to date cooling degree days 0 0  
Moisture  
Dew Point 28 °F    
Average Humidity 69    
Maximum Humidity 85    
Minimum Humidity 53    
Precipitation  
Precipitation 0.12 in 0.07 in 0.80 in (1971)
Month to date precipitation 0.60 1.12  
Year to date precipitation 2.49 3.80  
Snow  
Snow 0.00 in 0.20 in 12.00 in (1971)
Month to date snowfall 6.6 4.7  
Since 1 July snowfall 56.6 45.8  
Snow Depth T in    
Sea Level Pressure  
Sea Level Pressure 29.78 in    
Wind  
Wind Speed 10 mph (SE)    
Max Wind Speed 20 mph    
Max Gust Speed 25 mph    
Visibility 9 miles    
Events Rain    
T = Trace of Precipitation, MM = Missing Value Source: NWS Daily Summary

Daily Weather History Graph

Daily Weather History Graph

Search for Another Location

Airport or City:

Trip Planner

Search our weather history database for the weather conditions in past years. The results will help you decide how hot, cold, wet, or windy it might be!

Date:

Astronomy

Mar. 18, 2014 Rise Set
Actual Time 7:04 AM CDT 7:07 PM CDT
Civil Twilight 6:35 AM CDT 7:35 PM CDT
Nautical Twilight 6:02 AM CDT 8:08 PM CDT
Astronomical Twilight 5:28 AM CDT 8:42 PM CDT
Moon 9:28 PM CDT (3/18) 7:49 AM CDT (3/18)
Length of Visible Light 12h 59m
Length of Day
12h 03m
Waning Gibbous, 96% of the Moon is Illuminated
Mar 18
Waning Gibbous
Mar 23
Last Quarter
Mar 30
New
Apr 7
First Quarter
Apr 15
Full

Hourly Weather History & Observations

Time (CDT) Temp. Windchill Dew Point Humidity Pressure Visibility Wind Dir Wind Speed Gust Speed Precip Events Conditions
12:53 AM 30.9 °F 21.2 °F 24.1 °F 76% 29.80 in 10.0 mi SSE 12.7 mph - N/A   Clear
1:53 AM 30.0 °F 21.1 °F 25.0 °F 82% 29.81 in 10.0 mi SSE 10.4 mph - N/A   Clear
2:53 AM 30.0 °F 22.4 °F 24.1 °F 79% 29.81 in 10.0 mi SSE 8.1 mph - N/A   Clear
3:53 AM 27.0 °F 21.6 °F 23.0 °F 85% 29.81 in 9.0 mi SE 4.6 mph - N/A   Clear
4:53 AM 26.1 °F 18.4 °F 23.0 °F 88% 29.81 in 8.0 mi SE 6.9 mph - N/A   Clear
5:53 AM 28.9 °F 22.8 °F 24.1 °F 82% 29.80 in 9.0 mi SE 5.8 mph - N/A   Scattered Clouds
6:53 AM 26.1 °F 17.6 °F 21.9 °F 84% 29.81 in 7.0 mi ESE 8.1 mph - N/A   Scattered Clouds
7:53 AM 30.0 °F 24.1 °F 26.1 °F 85% 29.82 in 6.0 mi SE 5.8 mph - N/A   Mostly Cloudy
8:53 AM 33.1 °F 24.9 °F 28.0 °F 82% 29.83 in 7.0 mi SSE 10.4 mph - N/A   Overcast
9:53 AM 36.0 °F 26.3 °F 28.9 °F 76% 29.83 in 8.0 mi SSE 16.1 mph - N/A   Overcast
10:53 AM 37.9 °F 28.5 °F 28.9 °F 70% 29.85 in 9.0 mi SSE 17.3 mph - N/A   Overcast
11:53 AM 41.0 °F 32.8 °F 30.0 °F 65% 29.83 in 10.0 mi SE 16.1 mph - N/A   Mostly Cloudy
12:53 PM 43.0 °F 36.0 °F 30.9 °F 62% 29.81 in 10.0 mi ESE 13.8 mph - N/A   Mostly Cloudy
1:53 PM 46.0 °F 40.2 °F 30.0 °F 54% 29.82 in 10.0 mi South 12.7 mph - N/A   Mostly Cloudy
2:53 PM 46.0 °F 39.9 °F 30.0 °F 54% 29.79 in 10.0 mi SSE 13.8 mph - N/A   Mostly Cloudy
3:53 PM 44.1 °F 38.6 °F 30.9 °F 60% 29.77 in 10.0 mi SE 10.4 mph - N/A   Mostly Cloudy
4:53 PM 44.1 °F 37.4 °F 30.9 °F 60% 29.73 in 10.0 mi ESE 13.8 mph - N/A   Overcast
5:53 PM 42.1 °F 35.2 °F 30.9 °F 65% 29.73 in 8.0 mi ESE 12.7 mph - N/A   Mostly Cloudy
6:53 PM 39.9 °F 33.9 °F 30.9 °F 70% 29.75 in 8.0 mi East 9.2 mph - N/A   Mostly Cloudy
7:53 PM 39.0 °F 31.8 °F 30.9 °F 73% 29.74 in 10.0 mi East 11.5 mph - N/A   Mostly Cloudy
8:53 PM 37.9 °F 34.4 °F 30.9 °F 76% 29.77 in 9.0 mi East 4.6 mph - N/A   Overcast
9:53 PM 39.0 °F 33.4 °F 30.9 °F 73% 29.75 in 9.0 mi East 8.1 mph - N/A   Overcast
10:53 PM 39.0 °F 32.8 °F 32.0 °F 76% 29.72 in 8.0 mi East 9.2 mph - N/A   Overcast
10:56 PM 39.0 °F 32.3 °F 32.0 °F 76% 29.70 in 8.0 mi East 10.4 mph - 0.00 in Rain Light Rain
11:53 PM 37.9 °F 32.1 °F 34.0 °F 86% 29.70 in 4.0 mi East 8.1 mph - 0.04 in Rain Light Rain